Theta_e
300 300 300 300 300 300 299 299 300 300 299 300 300 299 299 299 300 298 293 294 290 284 285 285 286 282 281 282 278 277 278 276 277 274 272 271 269 271 270 272 271 271 269 268 266 265 265 277 276 273 279 280 281 281
298 299 299 299 300 300 300 300 300 300 300 299 300 300 299 299 299 299 292 295 294 286 285 288 289 290 288 287 284 279 281 275 280 276 274 274 269 268 271 267 275 269 274 272 270 272 278 279 280 282 283 281 281 281
296 297 298 298 299 300 300 300 300 300 299 300 300 300 300 299 299 298 293 294 291 285 285 285 285 289 289 289 291 281 280 283 281 284 278 276 271 273 269 269 273 276 278 273 274 277 278 280 282 283 283 282 283 283
297 296 296 297 297 298 299 299 299 299 299 300 300 300 299 300 299 299 293 293 291 286 281 283 286 286 291 290 289 288 287 285 285 283 279 276 273 277 274 275 274 277 277 274 274 277 279 280 281 282 282 283 281 277
296 296 296 296 296 297 297 298 298 298 299 299 299 299 299 299 299 298 295 294 294 287 280 281 282 285 288 289 287 287 286 284 282 279 278 276 279 277 278 277 275 278 276 273 272 278 278 279 282 283 280 280 276 274
296 296 296 296 296 296 296 297 298 298 298 298 298 298 299 299 299 292 284 291 294 292 283 277 285 281 284 286 286 285 285 284 283 280 279 280 282 278 274 272 278 280 281 281 278 281 281 282 282 278 276 274 272 271
294 295 295 295 295 296 296 296 296 297 297 297 298 298 298 298 295 285 285 289 295 293 283 278 278 279 279 283 283 283 284 283 282 280 279 279 279 280 276 272 278 280 281 280 281 280 278 279 277 272 272 270 268 267
293 293 294 294 295 295 295 296 296 296 297 297 297 297 297 298 296 290 291 294 294 287 284 277 276 274 276 277 278 281 280 281 281 280 279 278 279 278 272 277 279 280 280 279 279 272 272 271 270 268 267 266 264 265
292 292 292 293 293 294 294 295 295 295 296 296 296 296 294 291 285 287 295 295 292 286 278 277 273 271 275 275 277 277 279 275 280 276 277 277 275 271 275 276 277 278 275 272 268 267 267 268 266 264 263 262 262 263
291 291 291 292 292 293 293 294 294 295 295 295 292 285 282 286 294 293 289 284 282 282 282 275 274 273 276 275 274 275 276 274 270 273 277 274 273 277 276 271 267 266 265 266 266 264 264 264 263 262 261 261 261 261
289 290 290 290 291 292 292 292 293 293 294 287 284 283 287 293 286 283 278 277 278 275 279 276 275 271 275 272 273 276 273 274 269 271 271 269 267 274 266 263 263 263 262 261 262 262 261 260 260 260 260 259 259 258
289 289 289 290 290 290 291 292 292 290 286 287 286 287 286 282 279 275 274 276 273 272 270 273 273 278 275 278 275 275 271 272 267 266 267 265 270 263 262 260 259 259 257 257 258 258 258 258 258 257 257 256 256 256
289 289 289 289 290 290 290 291 292 292 291 285 283 279 278 277 271 270 268 267 268 265 268 269 271 274 275 277 274 273 269 268 266 265 265 267 262 258 257 256 255 255 255 255 255 255 255 255 255 255 254 254 253 252
288 288 289 289 289 290 290 290 291 290 285 278 276 271 272 270 272 271 269 268 271 270 267 269 268 271 272 273 273 268 268 266 263 261 263 269 257 254 255 254 254 253 251 252 252 252 252 252 253 253 252 252 250 250
289 288 289 289 289 290 290 290 290 287 283 276 275 269 270 267 263 261 259 266 267 272 271 268 268 271 269 269 270 266 262 262 263 264 268 258 254 253 253 253 252 251 251 250 250 249 250 250 250 250 250 249 249 248
286 286 284 288 289 289 290 289 286 285 277 274 271 268 261 266 264 260 260 266 263 271 270 271 268 267 266 267 265 264 263 261 266 264 257 253 251 250 250 250 250 249 248 248 248 248 248 247 247 249 247 248 248 249
284 277 285 288 288 288 287 281 276 268 269 267 263 260 262 263 262 259 261 264 267 270 269 268 265 265 267 265 262 264 263 269 257 251 251 252 251 250 248 247 247 246 247 247 246 246 246 247 244 245 249 253 251 253
277 280 285 286 283 277 268 269 268 266 261 258 262 258 258 257 257 258 260 263 268 268 268 268 267 264 262 260 261 261 254 250 250 250 251 249 248 247 246 248 247 246 247 246 245 245 245 246 249 252 250 253 253 256
280 281 284 284 278 270 267 264 264 259 254 255 256 257 256 255 257 257 258 260 261 261 266 266 266 263 262 259 256 252 251 253 252 251 251 247 246 246 245 245 245 247 246 248 250 251 251 250 251 253 255 256 256 257
281 280 280 279 277 268 263 260 262 259 257 255 256 255 255 255 255 254 255 256 260 263 264 263 261 256 256 254 253 254 253 252 251 250 250 250 248 245 248 249 251 249 250 250 251 252 253 254 255 255 255 255 255 255
274 273 276 269 264 262 259 257 254 253 253 253 253 254 253 253 252 253 254 253 259 259 257 252 250 248 248 248 248 250 250 250 250 251 251 250 248 248 249 250 249 251 252 252 252 253 253 253 254 254 254 254 255 255
267 272 268 270 264 260 257 257 255 256 253 250 251 253 251 251 249 248 248 255 254 250 249 250 251 249 248 249 246 242 243 242 241 246 246 249 250 250 250 251 251 251 252 252 252 252 253 254 254 254 254 253 254 254
266 266 261 260 258 256 253 258 254 252 252 252 251 252 250 249 250 251 255 250 247 244 243 244 243 239 242 237 236 238 237 243 246 246 246 248 248 248 250 251 252 252 252 253 254 253 253 254 254 254 254 253 253 253
261 253 252 252 251 248 250 250 254 251 249 250 251 250 249 248 248 252 254 249 247 241 241 239 240 243 242 242 244 243 243 242 245 245 245 248 250 251 252 253 253 253 253 253 253 253 254 253 253 253 253 253 252 252
256 245 247 245 246 246 247 247 249 251 246 245 246 248 246 242 249 249 248 245 242 244 243 238 239 242 246 243 243 243 239 245 248 249 250 250 252 252 253 253 254 254 255 253 253 253 253 253 253 252 252 252 251 251
243 239 242 238 243 245 242 245 248 248 244 246 245 241 239 245 248 247 244 244 243 243 241 243 244 243 244 244 247 248 249 246 248 251 252 252 253 253 253 253 252 254 254 254 253 252 252 252 251 251 251 252 252 251
242 240 239 237 238 239 239 238 238 242 243 245 241 241 242 245 245 245 244 240 242 242 241 244 245 246 249 250 249 248 247 251 253 254 254 254 254 254 254 252 252 254 254 253 252 251 251 251 251 251 251 251 252 251
238 236 240 239 238 235 238 236 238 240 240 239 238 243 244 244 245 245 244 243 240 240 241 244 248 250 250 250 250 252 252 252 252 252 252 252 252 253 253 254 254 258 254 253 253 252 251 251 251 251 250 250 251 252
237 234 235 239 237 241 238 241 241 240 239 238 242 243 244 242 241 241 244 242 238 244 246 248 248 247 249 249 248 248 249 250 250 249 248 249 250 252 249 249 250 251 252 252 254 257 254 252 251 251 251 251 251 249
237 233 239 238 241 241 238 235 235 233 233 235 234 238 239 239 239 235 237 240 244 245 245 247 249 251 252 252 250 248 243 244 248 249 247 247 249 249 247 249 250 251 250 248 249 250 252 251 249 246 247 247 248 248
232 231 236 236 238 235 232 228 227 228 229 229 227 233 236 236 240 240 243 242 243 245 247 249 250 249 250 250 250 245 248 243 239 244 246 248 249 249 250 251 251 249 248 247 247 246 247 246 245 245 245 246 246 247
234 232 236 240 239 233 229 229 228 231 230 234 236 234 240 242 247 249 247 246 248 249 251 251 250 252 251 251 245 241 246 243 247 250 251 251 251 252 252 251 249 246 245 247 246 246 245 244 246 247 247 247 247 247
240 238 238 240 242 243 239 237 238 238 236 236 236 231 232 238 246 247 246 244 247 248 249 249 248 247 243 242 243 246 250 251 252 256 258 257 257 256 254 253 250 248 247 248 248 248 247 247 247 247 247 247 247 247
Wind_Speed
20 20 20 21 21 21 21 21 21 21 21 18 23 20 20 19 17 11 3 8 7 5 7 12 12 7 5 6 6 4 4 1 3 7 5 4 6 6 4 5 4 6 5 5 1 4 12 5 7 7 1 4 12 12
19 18 22 22 22 23 22 23 22 22 22 20 23 24 20 20 20 17 5 9 9 4 2 4 15 17 15 13 8 6 6 6 7 5 6 3 4 3 6 9 6 9 10 6 9 6 1 6 6 11 16 18 18 14
22 22 19 17 19 22 22 22 22 24 22 23 22 23 24 23 21 19 4 5 5 4 5 6 11 11 11 14 12 7 4 7 6 4 5 4 8 6 7 9 13 17 16 12 12 19 20 20 21 21 19 16 14 12
22 20 21 21 19 19 21 22 22 22 25 22 23 24 21 22 22 19 7 5 5 1 5 7 1 8 9 14 16 16 10 5 4 4 6 6 6 9 10 12 12 13 5 10 15 21 19 21 20 22 20 15 6 1
22 22 21 21 21 21 20 22 22 21 23 25 23 21 24 23 23 15 6 7 9 5 2 1 3 7 9 15 17 15 15 11 5 5 6 9 9 8 10 9 14 14 19 13 16 21 17 22 18 16 12 10 4 3
21 21 21 21 22 22 23 21 22 22 21 21 20 21 22 21 20 4 4 7 10 7 3 5 2 4 6 13 15 16 14 9 8 5 5 6 10 7 7 12 18 18 15 18 20 23 19 23 17 3 6 6 4 3
21 21 21 22 23 23 23 23 23 22 22 22 21 21 21 23 13 5 4 3 19 9 3 4 4 0 3 5 5 6 9 6 7 5 6 8 8 8 6 13 23 15 16 18 20 17 17 14 7 6 5 5 3 2
19 19 20 21 22 22 22 22 22 22 22 21 20 21 22 22 19 11 6 11 13 4 4 4 3 1 1 4 5 4 5 5 6 4 3 7 4 5 9 16 16 16 18 19 14 1 2 6 7 6 4 2 1 2
18 18 19 19 20 20 20 19 20 20 20 19 19 19 11 9 5 3 20 24 7 6 5 5 7 5 5 3 2 3 4 5 3 7 8 6 7 10 13 14 15 15 7 2 4 4 4 4 5 4 1 1 3 3
17 18 18 18 17 15 16 17 19 18 17 16 9 4 5 5 14 14 11 7 9 6 5 5 2 5 6 6 6 5 5 5 6 7 4 7 13 15 7 2 4 3 3 1 3 3 3 3 3 1 3 3 3 5
15 14 15 15 16 17 16 15 15 15 14 4 5 5 2 12 3 6 6 5 3 6 6 5 7 6 5 5 6 5 2 3 4 4 7 4 5 10 6 6 6 5 5 5 4 4 4 2 1 3 4 4 5 6
16 16 16 18 17 16 16 16 16 9 3 4 4 4 2 5 4 7 8 6 6 7 4 6 6 6 4 3 4 5 4 5 6 3 3 4 5 5 7 6 6 6 5 4 4 3 3 3 3 4 6 6 7 7
19 19 19 19 19 20 18 16 18 15 10 2 4 6 5 5 9 9 10 3 5 5 7 6 5 5 4 4 3 5 7 5 3 4 5 6 3 4 5 6 5 4 3 2 2 3 4 5 5 4 6 6 6 6
21 18 19 19 20 21 21 19 18 14 5 5 5 8 9 5 6 5 6 7 5 6 9 5 5 4 2 6 4 5 3 4 4 4 8 4 4 6 5 4 3 2 2 3 4 4 6 6 6 7 7 6 6 7
17 16 16 19 21 21 20 19 20 7 4 6 5 6 7 1 3 1 1 3 1 4 10 5 3 3 3 3 4 4 3 5 7 7 4 3 6 6 6 4 3 2 1 3 3 4 6 6 6 7 7 5 6 7
1 5 5 13 16 18 18 15 6 4 1 2 1 5 1 1 1 1 1 2 4 6 3 3 4 4 4 5 6 8 6 9 6 4 3 6 5 3 3 3 2 2 3 4 4 4 5 5 6 7 8 7 6 6
10 3 15 13 8 5 13 4 3 5 2 3 1 3 2 3 1 1 2 3 1 3 4 4 7 7 4 3 4 5 8 6 2 3 3 4 5 4 3 2 3 2 3 3 2 3 4 4 4 4 6 6 6 6
3 7 12 4 6 5 4 5 4 4 4 3 1 2 2 1 3 0 2 2 2 2 3 3 5 4 6 7 5 3 2 2 2 3 3 2 2 2 2 2 2 3 3 4 3 3 3 4 4 4 5 6 6 4
5 7 16 12 8 6 4 5 4 5 2 1 2 2 1 2 3 3 2 2 2 1 3 2 3 4 5 2 2 2 3 3 4 4 2 1 2 3 3 3 3 2 2 2 2 2 3 3 4 5 5 5 4 4
6 11 10 18 9 4 5 4 3 4 2 2 2 2 2 2 2 2 2 3 2 2 2 3 3 1 1 2 1 2 2 5 6 5 2 2 2 2 3 2 1 0 0 1 1 2 2 2 3 4 5 4 4 4
6 6 10 6 5 7 6 3 4 2 2 3 1 1 1 1 2 2 2 5 1 1 2 1 1 1 1 2 3 3 4 3 2 2 3 4 3 2 1 1 2 1 1 1 1 2 3 3 4 4 5 5 4 4
1 7 3 5 5 4 5 4 4 2 3 1 2 1 3 3 3 3 3 1 1 1 1 1 2 3 3 2 2 1 2 4 3 4 4 5 4 3 2 1 1 0 0 0 1 2 3 3 4 4 4 5 5 4
6 4 5 5 6 6 2 2 4 4 3 0 1 2 2 2 2 2 1 1 1 1 1 2 2 3 3 1 2 1 2 3 3 3 2 2 2 2 2 2 2 1 0 0 1 2 2 4 4 4 4 4 4 4
11 9 8 6 5 2 2 4 2 3 3 2 2 3 2 0 4 1 1 1 1 1 2 1 1 3 1 1 1 2 2 2 3 2 2 3 2 2 3 2 2 3 2 1 2 2 2 2 4 3 4 4 5 4
8 11 6 7 4 5 5 3 3 2 2 1 1 1 1 3 1 2 2 3 1 1 2 2 2 1 3 1 1 2 3 3 3 3 2 3 2 1 1 2 2 3 3 2 1 1 2 2 3 4 4 4 6 7
10 5 5 1 4 3 1 3 3 2 1 1 0 1 2 1 2 1 3 3 3 4 5 5 5 2 0 3 3 2 3 5 2 1 2 4 4 3 2 2 1 2 4 4 2 2 3 3 4 6 6 7 7 7
7 5 3 0 2 2 3 2 1 2 3 2 2 2 2 4 1 4 3 2 2 3 4 3 4 3 3 3 2 2 2 5 3 1 1 1 3 3 4 3 4 3 3 5 4 4 5 5 6 6 7 7 6 6
3 3 2 5 2 0 4 2 2 2 2 1 2 3 3 3 3 3 3 2 3 3 2 2 3 1 1 2 2 3 2 1 2 3 3 3 4 4 5 4 4 7 4 5 5 5 5 6 6 7 7 8 9 5
3 3 0 4 3 4 2 1 1 1 1 1 2 1 2 3 2 2 2 2 2 2 2 3 1 1 2 3 2 2 2 3 2 3 2 3 3 2 1 3 3 3 3 4 8 9 8 8 8 8 10 8 7 4
4 1 2 1 3 2 2 2 2 2 1 1 1 3 3 4 4 1 2 2 2 0 2 2 2 2 2 2 1 3 2 3 3 4 4 4 4 3 2 3 3 4 3 4 6 6 7 5 5 3 4 5 5 6
2 3 2 1 1 3 3 2 2 1 1 1 1 2 4 4 5 2 2 1 1 1 2 2 1 1 2 2 2 1 3 2 4 6 5 4 5 5 5 5 5 4 4 4 5 5 6 4 4 7 7 9 9 8
3 3 2 3 3 3 2 3 1 2 3 3 2 2 3 2 3 2 1 0 1 2 3 2 2 3 3 3 1 2 2 3 4 5 7 5 6 6 6 5 4 3 4 6 6 6 6 8 8 8 9 11 11 10
1 1 1 2 2 3 3 3 3 3 3 3 3 1 1 1 2 4 2 2 3 3 3 2 3 3 3 4 4 4 4 4 6 10 11 12 13 12 8 6 5 5 6 7 7 7 9 10 10 11 11 11 11 11
Wind_Direction
257 253 248 247 248 247 245 244 238 234 237 244 231 228 224 229 227 214 158 191 179 203 209 203 198 163 153 179 173 161 147 155 169 200 199 198 219 203 223 247 214 240 225 200 179 250 267 146 124 220 278 271 298 288
263 261 258 256 249 245 245 242 245 235 240 235 231 232 225 229 230 216 220 185 202 226 268 238 228 217 212 189 195 193 200 160 174 184 207 174 199 197 217 254 197 252 222 245 216 242 244 192 254 261 282 285 284 284
258 260 260 262 265 255 250 248 242 239 245 241 236 232 225 229 231 215 193 155 179 213 239 213 219 220 226 211 203 197 218 195 204 181 166 199 234 174 227 234 255 256 253 242 260 253 257 267 267 271 275 274 277 279
255 260 260 261 261 262 260 252 249 243 242 252 239 237 240 235 231 226 203 168 192 199 244 245 67 211 211 205 218 220 218 175 221 181 209 213 224 197 235 241 234 242 236 243 254 260 269 261 262 266 269 274 263 161
253 250 254 258 261 259 256 256 249 245 240 241 240 237 229 234 230 221 202 184 190 205 299 289 309 230 201 195 208 212 217 216 198 197 206 225 235 225 237 247 244 242 247 246 251 263 261 271 271 275 257 250 190 193
256 251 251 252 254 255 257 250 249 243 238 238 238 233 231 236 226 181 208 202 193 178 234 237 269 235 193 202 205 211 215 220 214 207 217 228 228 209 232 241 248 252 248 242 252 260 269 268 276 257 212 180 173 177
257 257 261 262 260 256 252 252 245 241 237 233 230 232 232 227 216 186 195 201 178 157 202 236 222 87 289 180 203 210 195 194 205 222 220 237 226 214 237 252 257 256 253 255 258 272 267 251 237 154 144 136 112 41
260 260 259 260 261 256 252 249 248 243 236 231 233 234 235 232 229 217 185 152 146 156 184 218 207 242 195 162 192 182 185 192 204 219 222 231 230 220 241 244 253 256 260 265 271 93 328 110 121 118 100 112 183 262
261 263 264 264 262 256 254 251 245 241 236 233 234 238 242 224 208 171 173 177 181 168 196 186 180 211 158 150 133 183 198 206 172 220 225 197 219 223 230 240 243 258 260 214 121 120 130 168 140 132 131 201 287 297
266 263 261 260 259 255 253 248 245 238 232 227 220 190 217 192 137 145 183 201 196 187 193 186 120 175 175 170 181 167 195 213 207 220 151 223 238 244 219 172 89 96 77 133 169 220 182 182 183 209 266 285 283 295
250 253 254 255 254 249 244 237 240 237 229 191 184 200 95 158 138 178 192 200 169 197 175 138 177 153 203 158 180 204 206 204 226 190 205 217 251 232 118 110 90 84 82 59 56 84 80 97 204 271 273 290 297 300
266 267 266 255 250 245 238 236 230 215 191 198 127 109 153 195 183 207 177 168 188 202 176 151 175 181 157 158 159 173 199 192 230 119 217 240 235 93 113 107 80 64 56 63 36 35 15 348 326 297 292 290 294 294
263 258 255 255 243 243 239 231 231 215 167 127 205 160 202 190 193 195 180 185 176 165 182 169 155 138 151 189 177 173 204 218 111 189 227 231 106 118 121 120 108 77 59 49 360 344 322 306 302 281 287 275 275 273
263 262 260 256 247 243 231 228 226 220 190 191 194 197 192 188 216 184 178 173 200 155 149 135 120 149 155 172 165 194 137 133 209 225 226 215 154 144 136 120 143 125 29 327 305 304 297 293 296 294 277 278 276 272
257 263 262 255 246 238 234 225 219 190 229 196 184 218 202 161 39 22 135 152 134 142 137 109 88 124 142 164 184 110 152 227 215 226 221 151 150 154 155 155 155 186 267 285 288 295 297 297 294 291 282 279 277 273
288 59 357 323 252 231 217 218 200 158 72 292 78 149 94 134 150 295 273 139 178 135 97 75 122 144 184 173 168 205 181 213 221 206 133 132 147 154 151 175 200 233 252 272 288 279 293 287 280 288 301 282 269 253
59 34 330 344 54 92 46 98 96 58 73 118 102 358 38 49 5 114 176 164 206 160 154 142 161 187 101 171 210 191 211 247 142 148 139 137 153 168 181 212 245 259 279 277 279 283 270 284 290 280 297 310 295 280
46 311 309 120 104 66 52 25 83 71 81 26 269 40 45 72 128 181 320 8 174 134 177 138 115 169 185 178 231 204 112 91 47 116 139 153 185 174 181 238 266 262 276 274 261 285 285 303 314 309 295 289 294 294
17 15 24 50 65 84 64 36 10 104 110 115 86 18 53 92 40 12 329 342 335 95 101 96 160 190 217 181 158 165 155 166 159 147 145 154 222 199 194 222 260 273 277 298 339 321 318 292 277 304 312 315 324 338
85 28 36 42 46 70 80 39 8 76 101 82 55 51 65 20 53 359 346 4 14 82 128 185 216 107 81 79 19 74 114 139 132 126 136 187 195 183 203 187 155 263 298 8 292 273 329 354 2 348 339 343 346 353
47 347 19 58 56 55 71 45 52 92 126 83 350 347 97 67 45 30 28 344 18 74 194 111 129 136 89 64 48 47 113 145 158 129 145 158 177 199 144 164 202 150 91 18 1 4 14 7 351 350 349 355 350 352
327 17 52 40 80 71 77 15 98 88 67 93 36 9 34 41 21 5 300 28 51 54 15 103 138 140 112 112 100 66 123 107 96 107 97 110 134 156 175 177 137 143 235 349 347 339 342 346 352 353 347 338 346 347
25 33 54 23 81 47 21 335 69 11 87 106 25 65 35 18 20 305 235 60 267 60 334 44 35 42 95 6 43 45 204 156 128 129 138 155 172 199 209 204 197 201 285 201 311 314 326 341 343 341 338 344 343 337
30 46 35 43 30 108 3 43 57 79 68 58 147 167 179 19 330 58 258 295 356 344 24 305 130 82 37 26 149 219 197 140 114 137 191 156 169 210 203 211 206 218 226 287 296 313 317 329 333 333 336 335 333 327
72 358 18 12 4 45 45 31 19 71 103 351 92 90 5 346 159 161 188 281 312 216 181 190 196 150 147 183 288 255 207 174 157 164 210 194 164 156 211 223 231 225 185 218 247 269 301 311 314 317 317 315 312 312
68 321 46 299 333 62 338 79 37 62 113 107 110 314 359 153 99 192 237 234 216 196 186 185 173 138 327 203 153 183 210 186 157 159 244 190 196 205 211 220 265 278 188 199 208 259 284 295 299 309 305 304 299 302
61 340 335 185 127 106 52 22 11 82 68 55 295 9 55 69 314 269 292 227 221 231 209 177 164 162 177 171 221 250 210 167 184 169 112 190 219 213 206 215 237 244 177 187 201 220 261 285 289 288 288 289 276 273
118 18 59 316 18 20 128 69 53 65 269 252 84 36 109 156 220 254 228 276 243 283 211 187 197 178 152 183 177 134 149 176 272 286 272 247 231 225 220 233 238 245 221 216 226 235 237 249 260 271 274 275 284 277
37 332 313 2 5 38 52 78 190 272 334 113 103 312 270 244 249 282 309 319 311 65 73 138 171 113 71 67 66 79 132 142 86 41 18 318 338 325 265 241 252 250 247 253 261 251 238 237 243 247 256 260 273 283
340 16 23 37 60 20 268 163 240 283 295 317 315 304 291 280 255 222 304 346 42 210 209 228 155 157 154 156 297 316 251 201 187 163 182 232 230 242 268 275 264 253 238 239 256 270 282 292 307 309 292 284 275 278
319 15 35 48 178 260 245 281 308 317 1 349 321 165 248 298 305 244 247 229 243 154 154 132 145 192 162 176 197 115 314 268 224 245 255 274 278 271 268 264 253 246 237 239 249 251 263 264 248 262 268 269 270 262
7 58 37 359 317 284 28 44 10 57 331 29 324 302 299 310 4 335 80 180 283 262 250 224 199 238 216 246 266 267 255 277 255 251 255 256 260 259 261 263 253 233 242 249 243 243 239 246 261 259 265 270 270 269
260 218 206 291 328 8 5 353 18 359 27 26 345 277 268 324 84 299 332 214 245 274 278 278 296 298 260 239 240 263 252 256 273 285 282 275 270 268 263 251 238 228 241 252 253 248 250 252 257 262 264 262 265 268